Regional Weather Roundup
Issued by NWS Albany, NY

Home | Current Version | Previous Version | Graphics & Text | Print | Product List | Glossary On
Versions: 1 2 3 4 5 6 7 8 9 10 11 12 13 14 15 16 17 18 19 20 21 22 23 24 25 26 27 28 29 30 31 32 33 34 35 36 37 38 39 40 41 42 43 44 45 46 47 48 49 50
346
ASUS41 KALY 180310
RWRALY

NEW YORK STATE HOURLY WEATHER ROUNDUP
NATIONAL WEATHER SERVICE ALBANY NY
1000 PM EST SUN DEC 17 2017

NOTE: "FAIR" INDICATES FEW OR NO CLOUDS BELOW 12,000 FEET WITH NO
SIGNIFICANT WEATHER AND/OR NO OBSTRUCTIONS TO VISIBILITY.

NYZ032-033-038>043-046>054-057>066-NYZ062>081-082-084-180400-
EAST


CITY           SKY/WX    TMP DP  RH WIND       PRES   REMARKS
ALBANY         MOCLDY    20   9  62 N3        30.26F
GLENS FALLS    CLOUDY    12   7  80 CALM      30.26F
POUGHKEEPSIE   CLOUDY    27  16  63 CALM      30.24F
NEWBURGH       CLOUDY    27  19  74 CALM      30.23F
MONTGOMERY     CLOUDY    26  17  68 N6        30.21F WCI  19
WHITE PLAINS   CLOUDY    30  18  60 CALM      30.22F
ISLIP          CLOUDY    33  24  69 CALM      30.25F
NEW YORK CITY  CLOUDY    35  25  66 E7        30.24F WCI  29
CENTRAL PARK   CLOUDY    36  26  67 E6        30.25F WCI  31
$$

NYZ005>009-017-018-044>046-055-056-180400-
CENTRAL


CITY           SKY/WX    TMP DP  RH WIND       PRES   REMARKS
FULTON         CLOUDY    19  14  81 E5        30.15F WCI  12
SYRACUSE       CLOUDY    20  15  81 E6        30.15F WCI  12
ROME           CLOUDY    19  13  77 E8        30.21F WCI   9
ELMIRA         CLOUDY    28  21  75 NE3       30.12F
BINGHAMTON     CLOUDY    23  19  85 SE6       30.09F WCI  16
MONTICELLO     CLOUDY    25  21  85 E5        30.16F WCI  19
$$

NYZ026>034-041>043-087-180400-
NORTH


CITY           SKY/WX    TMP DP  RH WIND       PRES   REMARKS
WATERTOWN      PTCLDY    10   4  76 NE6       30.19F WCI   0
FORT DRUM      NOT AVBL
OGDENSBURG     FAIR       7   4  87 E3        30.21F
MASSENA        CLOUDY     1  -2  87 NE6       30.24F WCI -10
SARANAC LAKE   CLOUDY     3  -1  83 N3        30.09F
PLATTSBURGH    CLOUDY    12   5  73 CALM      30.27F
$$

NYZ001>004-010>016-019>021-085-180400-
WEST


CITY           SKY/WX    TMP DP  RH WIND       PRES   REMARKS
NIAGARA FALLS  CLOUDY    25  17  72 E5        30.06F WCI  19
BUFFALO        CLOUDY    24  19  81 E3        30.06F
DUNKIRK        CLOUDY    26  23  88 NW3       30.06F
JAMESTOWN      CLOUDY    31  29  92 S12       30.03F WCI  22
WELLSVILLE     CLOUDY    35  27  72 S6        30.04F WCI  30
ROCHESTER      CLOUDY    24  20  84 SE9       30.10F WCI  14
PENN YAN       CLOUDY    24  19  81 CALM      30.10F
$$

             KEY
       WCI = WIND CHILL INDEX
       VSB = VISIBILITY
       HX  = HEAT INDEX
$$




USA.gov is the U.S. government's official web portal to all federal, state and local government web resources and services.